Weather reports worldwide

Advertisment
Benavente, Spain (8056): temperature & dewpoint: 17.05.2019 14:00:00 - 23.05.2019 14:00:00 (CEST)Benavente, Spain (8056): wind speed & gusts: 17.05.2019 14:00:00 - 23.05.2019 14:00:00 (CEST)Benavente, Spain (8056): wind direction: 17.05.2019 14:00:00 - 23.05.2019 14:00:00 (CEST)Benavente, Spain (8056): reduced air pressure: 17.05.2019 14:00:00 - 23.05.2019 14:00:00 (CEST)Benavente, Spain (8056): visibility: 17.05.2019 14:00:00 - 23.05.2019 14:00:00 (CEST)Benavente, Spain (8056): sunshine duration: 17.05.2019 14:00:00 - 23.05.2019 14:00:00 (CEST)Benavente, Spain (8056): precipitation: 17.05.2019 14:00:00 - 23.05.2019 14:00:00 (CEST)
Date & Time tt [°C] td [°C] ff [km/h] ff [kn] fx [km/h] fx [kn] dd ppp [hPa] vv [km] sd [min] rr [mm]
23.05.2019 14:00:00 - - - - - - - - - - -
23.05.2019 13:00:00 21,1 7,7 7 4 17 9 WNW 1015,4 20 30 0,0
23.05.2019 12:00:00 19,8 7,8 5 3 14 7 W 1016,3 20 39 0,0
23.05.2019 11:00:00 17,5 8,7 5 3 16 9 W 1016,9 20 2 0,0
23.05.2019 10:00:00 16,2 8,0 6 4 13 7 W 1017,1 20 0 0,0
23.05.2019 09:00:00 14,8 8,9 4 2 9 5 WNW 1017,0 20 0 0,0
23.05.2019 08:00:00 12,7 8,5 1 1 4 2 ENE 1017,3 20 0 -
23.05.2019 07:00:00 13,3 8,4 2 1 6 3 W 1017,0 20 0 0,0
23.05.2019 06:00:00 13,5 8,4 2 1 4 2 NNW 1017,1 20 0 0,0
23.05.2019 05:00:00 14,2 8,4 1 1 19 10 N 1016,8 20 0 0,0
23.05.2019 04:00:00 15,8 8,5 9 5 18 10 N 1016,2 20 0 0,0
23.05.2019 03:00:00 16,1 8,4 3 1 29 15 NNE 1016,7 20 0 0,0
23.05.2019 02:00:00 16,5 8,5 8 4 18 10 NNW 1016,3 20 0 -
23.05.2019 01:00:00 17,7 6,8 9 5 22 12 NW 1016,1 20 0 0,0
23.05.2019 00:00:00 19,0 3,6 8 5 15 8 NW 1015,5 20 0 0,0
22.05.2019 23:00:00 20,5 2,9 6 3 15 8 W 1014,6 20 0 0,0
22.05.2019 22:00:00 22,3 2,9 6 4 22 12 WSW 1013,7 20 1 0,0
22.05.2019 21:00:00 24,4 3,0 8 4 22 12 WSW 1012,9 20 27 0,0
22.05.2019 20:00:00 26,1 2,7 8 5 25 14 WSW 1012,1 20 28 -
22.05.2019 19:00:00 26,5 1,1 10 5 23 12 WSW 1011,9 20 47 0,0
22.05.2019 18:00:00 26,3 1,5 5 3 24 13 SSW 1012,4 20 53 0,0
22.05.2019 17:00:00 26,4 1,7 8 4 22 12 W 1012,6 20 60 0,0
22.05.2019 16:00:00 25,4 1,5 8 4 22 12 S 1013,5 20 60 0,0
22.05.2019 15:00:00 24,3 1,3 9 5 35 19 S 1014,3 20 60 0,0
22.05.2019 14:00:00 23,5 1,7 8 4 20 11 SW 1015,0 20 60 -
22.05.2019 13:00:00 22,0 2,1 5 3 12 7 SW 1016,0 20 60 0,0
22.05.2019 12:00:00 19,8 2,7 4 2 14 8 E 1016,9 18 60 0,0
22.05.2019 11:00:00 17,0 2,5 3 1 12 7 NNW 1017,7 20 60 0,0
22.05.2019 10:00:00 15,0 1,9 6 3 18 10 ENE 1018,4 20 60 0,0
22.05.2019 09:00:00 13,1 2,1 8 4 23 13 NNE 1018,8 9 60 0,0
22.05.2019 08:00:00 10,9 3,0 6 4 13 7 N 1019,4 20 39 -
22.05.2019 07:00:00 8,9 2,9 7 4 13 7 N 1019,5 20 0 0,0
22.05.2019 06:00:00 9,4 4,5 6 3 14 8 NNE 1019,3 20 0 0,0
22.05.2019 05:00:00 10,7 5,5 9 5 16 9 N 1019,1 20 0 0,0
22.05.2019 04:00:00 11,1 6,2 6 4 14 7 N 1019,0 20 0 0,0
22.05.2019 03:00:00 11,9 6,5 6 4 14 8 N 1018,7 20 0 0,0
22.05.2019 02:00:00 13,4 6,7 9 5 27 14 N 1018,0 20 0 -
22.05.2019 01:00:00 14,0 6,5 10 5 24 13 E 1016,8 19 0 0,0
22.05.2019 00:00:00 15,2 5,1 12 7 26 14 E 1016,3 20 0 0,0
21.05.2019 23:00:00 16,3 1,5 3 2 8 4 NE 1015,4 20 0 0,0
21.05.2019 22:00:00 19,0 1,1 3 1 11 6 E 1013,8 20 3 0,0
21.05.2019 21:00:00 22,6 -1,4 1 1 9 5 NNW 1012,4 20 29 0,0
21.05.2019 20:00:00 24,0 -1,7 4 2 21 11 SW 1011,7 20 36 -
21.05.2019 19:00:00 23,7 -1,2 3 1 18 10 SSE 1011,6 20 32 0,0
21.05.2019 18:00:00 23,7 -0,7 7 4 21 11 SE 1011,9 20 60 0,0
21.05.2019 17:00:00 23,6 -1,4 6 3 19 10 NNW 1012,1 20 48 0,0
21.05.2019 16:00:00 23,3 -1,0 10 6 25 14 S 1012,3 20 56 0,0
21.05.2019 15:00:00 21,7 0,2 10 6 24 13 NE 1012,8 20 50 0,0
21.05.2019 14:00:00 21,0 0,9 7 4 19 10 NE 1013,3 20 59 -
21.05.2019 13:00:00 20,1 1,9 6 4 21 11 E 1014,0 20 60 0,0
21.05.2019 12:00:00 17,8 3,6 9 5 25 14 ENE 1014,7 20 60 0,0
21.05.2019 11:00:00 15,6 3,8 9 5 21 12 NE 1015,5 20 60 0,0
21.05.2019 10:00:00 14,3 3,8 9 5 26 14 NE 1015,9 20 60 0,0
21.05.2019 09:00:00 12,0 3,4 13 7 26 14 NNE 1016,5 20 54 0,0
21.05.2019 08:00:00 9,2 4,5 7 4 17 9 N 1016,8 20 0 -
21.05.2019 07:00:00 9,1 4,6 5 3 16 9 N 1016,4 20 0 0,0
21.05.2019 06:00:00 10,2 4,8 8 4 20 11 NNE 1015,7 20 0 0,0
21.05.2019 05:00:00 10,7 5,0 10 5 24 13 NE 1015,6 20 0 0,0
21.05.2019 04:00:00 11,0 5,5 13 7 26 14 NE 1015,4 20 0 0,0
21.05.2019 03:00:00 11,6 5,9 11 6 26 14 NE 1015,1 20 0 0,0
21.05.2019 02:00:00 13,3 4,5 8 5 19 10 ENE 1014,3 20 0 -
21.05.2019 01:00:00 14,8 0,6 11 6 26 14 N 1013,8 20 0 0,0
21.05.2019 00:00:00 15,2 2,1 10 6 27 15 NNW 1013,1 20 0 0,0
20.05.2019 23:00:00 16,1 2,5 8 5 26 14 WNW 1012,7 20 0 0,0
20.05.2019 22:00:00 17,9 1,5 8 4 14 8 SW 1011,1 20 0 0,0
20.05.2019 21:00:00 18,8 -2,7 3 1 12 6 W 1010,5 20 0 0,0
20.05.2019 20:00:00 19,8 -2,5 3 2 15 8 NNW 1010,1 20 2 -
20.05.2019 19:00:00 19,7 -2,0 4 2 16 8 NNE 1010,2 20 18 0,0
20.05.2019 18:00:00 20,2 -2,7 9 5 24 13 SSW 1010,0 20 54 0,0
20.05.2019 17:00:00 19,7 -1,4 6 4 20 11 SE 1010,3 20 60 0,0
20.05.2019 16:00:00 19,6 -0,5 7 4 16 9 NNE 1010,6 20 60 0,0
20.05.2019 15:00:00 18,4 -0,5 6 3 15 8 SSE 1011,4 20 27 0,0
20.05.2019 14:00:00 17,8 0,4 6 3 20 11 WSW 1012,0 20 55 -
20.05.2019 13:00:00 15,7 1,7 8 5 23 12 ENE 1012,9 20 60 0,0
20.05.2019 12:00:00 14,1 1,7 8 4 24 13 NE 1013,8 20 60 0,0
20.05.2019 11:00:00 13,0 2,3 11 6 24 13 ENE 1014,3 20 60 0,0
20.05.2019 10:00:00 11,1 2,5 11 6 20 11 E 1015,0 20 57 0,0
20.05.2019 09:00:00 8,9 3,0 6 3 19 10 NNE 1015,3 20 60 0,0
20.05.2019 08:00:00 6,7 2,9 8 4 19 11 NNE 1015,6 20 23 -
20.05.2019 07:00:00 5,5 2,5 6 4 16 9 NNE 1015,4 20 0 0,0
20.05.2019 06:00:00 5,7 2,5 6 3 14 7 NE 1015,7 20 0 0,0
20.05.2019 05:00:00 5,9 2,5 5 3 11 6 NE 1015,7 20 0 0,0
20.05.2019 04:00:00 6,4 2,9 6 4 18 10 NE 1015,7 20 0 0,0
20.05.2019 03:00:00 7,1 3,2 6 3 23 12 ENE 1015,7 20 0 0,0
20.05.2019 02:00:00 7,9 3,4 10 5 28 15 ENE 1015,5 20 0 -
20.05.2019 01:00:00 9,0 3,6 11 6 31 17 ENE 1015,2 20 0 0,0
20.05.2019 00:00:00 10,5 3,8 12 7 39 21 ENE 1014,6 20 0 0,0
19.05.2019 23:00:00 12,1 3,6 18 10 32 18 E 1013,2 20 0 0,0
19.05.2019 22:00:00 16,1 -2,5 3 2 6 3 S 1010,8 20 0 0,0
19.05.2019 21:00:00 17,1 -3,6 3 1 17 9 ESE 1010,2 20 8 0,0
19.05.2019 20:00:00 17,6 -4,5 9 5 28 15 NE 1009,7 20 33 -
19.05.2019 19:00:00 19,2 -5,1 4 2 25 14 W 1009,4 20 52 0,0
19.05.2019 18:00:00 19,1 -4,5 4 2 23 12 ENE 1009,6 20 60 0,0
19.05.2019 17:00:00 18,2 -4,5 5 3 28 15 SSW 1010,5 20 60 0,0
19.05.2019 16:00:00 17,4 -5,1 8 4 19 11 WSW 1011,3 20 50 0,0
19.05.2019 15:00:00 16,4 -3,6 6 3 21 11 W 1011,8 20 30 0,0
19.05.2019 14:00:00 14,9 -3,6 3 1 17 9 NNE 1012,5 20 42 -
19.05.2019 13:00:00 14,6 -2,5 7 4 19 11 W 1012,7 20 60 0,0
19.05.2019 12:00:00 13,3 -2,2 5 3 21 11 N 1013,4 20 60 0,0
19.05.2019 11:00:00 12,1 -1,7 7 4 22 12 N 1013,8 20 60 0,0
19.05.2019 10:00:00 10,6 -0,3 11 6 23 12 N 1014,1 20 60 0,0
19.05.2019 09:00:00 8,3 1,3 9 5 27 15 NW 1014,8 20 60 0,0
19.05.2019 08:00:00 5,8 1,3 10 6 23 12 NW 1015,2 20 37 -
19.05.2019 07:00:00 4,7 0,9 8 5 20 11 NNW 1015,4 20 0 0,0
19.05.2019 06:00:00 5,6 0,9 9 5 25 14 N 1015,1 20 0 0,0
19.05.2019 05:00:00 6,2 0,9 13 7 29 16 NW 1014,8 20 0 0,0
19.05.2019 04:00:00 6,8 1,5 15 8 32 18 NW 1014,7 20 0 0,0
19.05.2019 03:00:00 7,1 1,7 13 7 32 18 NNW 1014,7 20 0 0,0
19.05.2019 02:00:00 7,5 1,7 11 6 31 17 NNW 1014,8 20 0 -
19.05.2019 01:00:00 8,2 1,5 14 8 29 16 NNW 1014,6 20 0 0,0
19.05.2019 00:00:00 8,9 2,3 11 6 30 16 NW 1014,5 20 0 0,0
18.05.2019 23:00:00 9,9 2,3 13 7 34 18 NNW 1014,1 20 0 0,0
18.05.2019 22:00:00 10,7 1,7 18 10 44 24 NNW 1013,3 20 0 0,0
18.05.2019 21:00:00 12,2 0,6 22 12 49 26 NNW 1012,3 20 18 0,0
18.05.2019 20:00:00 13,5 0,2 23 12 46 25 NNW 1011,4 20 0 -
18.05.2019 19:00:00 14,6 -1,2 21 12 - - NNW 1010,8 20 - -
18.05.2019 18:00:00 16,7 -1,0 19 10 40 22 NNW 1009,7 20 24 0,0
18.05.2019 17:00:00 15,6 -2,5 6 3 37 20 NW 1009,9 20 19 0,0
18.05.2019 16:00:00 16,8 -2,2 16 9 42 23 NNW 1009,8 20 34 0,0
18.05.2019 15:00:00 14,8 -1,4 16 8 40 21 NNW 1010,6 20 21 0,0
18.05.2019 14:00:00 15,5 -0,7 15 8 43 23 NNW 1010,6 20 45 -
18.05.2019 13:00:00 14,6 -1,2 16 9 34 18 N 1011,2 20 46 0,0
18.05.2019 12:00:00 14,5 -1,7 14 8 35 19 NW 1011,0 20 59 0,0
18.05.2019 11:00:00 12,4 -0,5 12 6 32 17 NW 1011,6 20 60 0,0
18.05.2019 10:00:00 9,8 -0,3 8 4 19 10 W 1012,6 20 59 0,0
18.05.2019 09:00:00 7,0 0,2 4 2 15 8 WSW 1013,2 20 60 0,0
18.05.2019 08:00:00 5,0 -0,5 7 4 16 9 W 1013,8 20 35 -
18.05.2019 07:00:00 4,3 -0,3 6 3 16 8 WSW 1014,0 20 0 0,0
18.05.2019 06:00:00 4,2 0,0 9 5 20 11 WNW 1013,9 20 0 0,0
18.05.2019 05:00:00 4,8 0,4 9 5 19 11 WNW 1013,9 20 0 0,0
18.05.2019 04:00:00 5,5 -0,3 10 5 26 14 WNW 1014,3 20 0 0,0
18.05.2019 03:00:00 6,1 -0,5 9 5 16 9 WNW 1014,2 20 0 0,0
18.05.2019 02:00:00 6,4 -0,3 7 4 26 14 WNW 1014,5 20 0 -
18.05.2019 01:00:00 6,7 0,0 7 4 17 9 WNW 1014,6 20 0 0,0
18.05.2019 00:00:00 7,5 0,6 8 5 32 17 NW 1014,4 20 0 0,0
17.05.2019 23:00:00 8,3 1,1 9 5 25 14 NW 1014,1 20 0 0,0
17.05.2019 22:00:00 9,4 1,1 13 7 38 21 NW 1013,3 20 6 0,0
17.05.2019 21:00:00 11,9 0,0 21 11 42 23 NW 1012,0 20 32 0,0
17.05.2019 20:00:00 13,7 -0,5 21 12 43 23 NNW 1010,8 20 16 -
17.05.2019 19:00:00 14,8 0,2 23 12 48 26 NNW 1010,1 20 16 0,0
17.05.2019 18:00:00 16,4 -2,2 22 12 45 24 NW 1009,6 20 59 0,0
17.05.2019 17:00:00 17,1 -2,0 18 10 36 19 NW 1009,5 20 35 0,0
17.05.2019 16:00:00 16,1 0,2 17 9 44 24 WNW 1010,2 20 47 0,0
17.05.2019 15:00:00 16,1 0,6 22 12 42 23 NW 1010,2 20 44 0,0
17.05.2019 14:00:00 15,8 0,6 20 11 43 23 NW 1010,6 20 38 -

tt = temperature
td = dewpoint
ff = wind speed
fx = gusts
dd = wind direction
ppp = reduced air pressure
vv = visibility
sd = sunshine duration
rr = precipitation

Next stations